AirNav   Air Wisconsin pilot careers
 
 1499 users online  

44L Wilshire Area Heliport
Los Angeles, California, USA

GOING TO LOS ANGELES?


FAA INFORMATION EFFECTIVE 07 DECEMBER 2017

Location

FAA Identifier: 44L
Lat/Long: 34-02-50.1000N / 118-20-34.4000W
34-02.835000N / 118-20.573333W
34.0472500 / -118.3428889
(estimated)
Elevation: 150 ft. / 46 m (estimated)
Variation: 14E (1985)
From city: 6 miles E of LOS ANGELES, CA
Time zone: UTC -8 (UTC -7 during Daylight Saving Time)
Zip code: 90019

Heliport Operations

Heliport use: Private use. Permission required prior to landing
Activation date: 06/1974
Control tower: no
ARTCC: LOS ANGELES CENTER
FSS: HAWTHORNE FLIGHT SERVICE STATION
Attendance: CONTINUOUS
Wind indicator: yes
Segmented circle: no
Lights: FOR PERIMETER LGTS; PHONE 213-485-2600.

Heliport Communications

UNICOM: 123.05
WX ASOS at SMO (6 nm W): PHONE 310-392-6453
WX ASOS at LAX (7 nm SW): PHONE 310-568-1486
WX ASOS at HHR (7 nm S): PHONE 310-973-8930
WX ASOS at BUR (9 nm N): PHONE 818-841-1384
WX AWOS-3PT at CPM (11 nm SE): 127.150 (310-631-4958)
WX ASOS at VNY (12 nm NW): PHONE 818-904-9213
WX AWOS-3PT at WHP (13 nm N): 132.1 (818-899-9820)
WX AWOS-3PT at EMT (15 nm E): 118.75 ((626) 444-1107)
WX ASOS at LGB (17 nm SE): PHONE 562-424-0572

Nearby radio navigation aids

VOR radial/distance  VOR name  Freq  Var
SMOr054/6.1SANTA MONICA VOR/DME110.8015E
LAXr018/8.2LOS ANGELES VORTAC113.6015E
VNYr130/12.9VAN NUYS VOR/DME113.1015E
SLIr303/21.4SEAL BEACH VORTAC115.7015E
POMr251/27.7POMONA VORTAC110.4015E
FIMr110/32.5FILLMORE VORTAC112.5015E
VTUr082/35.3VENTURA VOR/DME108.2015E
PMDr187/37.7PALMDALE VORTAC114.5015E
ELBr292/37.8EL TORO VOR/DME117.2014E
CMAr090/38.6CAMARILLO VOR/DME115.8015E
LHSr148/39.9LAKE HUGHES VORTAC108.4015E

 
NDB name  Hdg/Dist  Freq  Var  ID
EL MONTE246/15.735915EEMT . -- -

Heliport Services

Airframe service: NONE
Powerplant service: NONE

Runway Information

Helipad H1

Dimensions: 50 x 40 ft. / 15 x 12 m
Surface: concrete
Runway edge lights: PERIMETER LGTS.
Latitude: 34-02.835000N
Longitude: 118-20.573333W
Elevation: 150.0 ft.
Traffic pattern: leftleft

Heliport Ownership and Management from official FAA records

Ownership: Publicly-owned
Owner: CITY OF LOS ANGELES
555 RAMIREZ ST.SPACE 475
LOS ANGELES, CA 90012
Manager: C.O.-AIR SUPPORT DIV-LAPD
150 N. LOS ANGELES STREET
LOS ANGELES, CA 90012
Phone 213-485-2600

Additional Remarks

A52-H1 UNLGTD/UNMKD PLINES SOUTH & TREES WEST.
RSTRD LNDG POLICE BUS ONLY. PHONE AIR SUPPORT DIV WATCH COMMANDER 213-485-2600 FOR APVL PRIOR TO FLIGHT; THEN CTC KMB7 ON 123.050 PRIOR TO LNDG AT HELI.

Instrument Procedures

There are no published instrument procedures at 44L.

Some nearby airports with instrument procedures:

KSMO - Santa Monica Municipal Airport (6 nm W)
KLAX - Los Angeles International Airport (7 nm SW)
KHHR - Jack Northrop Field/Hawthorne Municipal Airport (7 nm S)
KBUR - Bob Hope Airport (9 nm N)
KVNY - Van Nuys Airport (12 nm NW)
KWHP - Whiteman Airport (13 nm N)
KTOA - Zamperini Field Airport (15 nm S)
KEMT - San Gabriel Valley Airport (15 nm E)
KLGB - Long Beach Airport (Daugherty Field) (17 nm SE)
 
Loc | Ops | Rwys | IFR | FBO | Links
Com | Nav | Svcs | Stats | Notes


 
Area around 44L (Wilshire Area Heliport)
 
Road maps at: MapQuest Bing Google
 
Aerial photo
No photo
 
Sectional chart

 
Airport distance calculator
Flying to Wilshire Area Heliport? Find the distance to fly.

From to 44L

Sunrise and sunset
Times for 18-Dec-2017
 Local
(UTC-8)
 Zulu
(UTC)
Morning civil twilight06:2714:27
Sunrise06:5414:54
Sunset16:4600:46
Evening civil twilight17:1301:13

Current date and time
Zulu (UTC)  18-Dec-2017 15:28:23
Local (UTC-8)  18-Dec-2017 07:28:23
 
METAR
KCQT 
5nm E 
181447Z AUTO 01003KT 10SM CLR 11/M06 A3013 RMK AO2 SLP201 T01061061 53014 $
KSMO 
6nm W 
181451Z AUTO 05003KT 10SM CLR 11/M06 A3014 RMK AO2 SLP204 T01061061 53015
KLAX 
7nm S 
181453Z 04003KT 10SM FEW100 FEW200 SCT250 12/M07 A3014 RMK AO2 SLP204 T01221067 53015
KHHR 
8nm S 
181453Z 00000KT 10SM CLR 10/M04 A3014 RMK AO2 SLP205 T01001039 53015
KBUR 
9nm N 
181453Z AUTO 00000KT 10SM CLR 08/M04 A3013 RMK AO2 SLP197 T00831039 53013
KVNY 
12nm NW 
181451Z 35010G15KT 10SM FEW200 12/M11 A3013 RMK AO2 SLP200 T01221111 53013
KWHP 
13nm N 
172155Z 36015G30KT 10SM SKC 18/M09 A2996
KTOA 
16nm S 
181448Z VRB03KT 10SM FEW200 09/M04 A3013 RMK FIRST
KEMT 
16nm E 
180345Z 00000KT 10SM CLR 13/M02 A3001
KLGB 
17nm SE 
181453Z AUTO 27003KT 10SM CLR 10/M03 A3013 RMK AO2 SLP202 T01001033 53015
TAF
KSMO 
6nm W 
181124Z 1812/1912 04006KT P6SM SKC FM182000 24008KT P6SM SKC FM190300 VRB03KT P6SM SKC
KLAX 
7nm S 
181450Z 1815/1918 07007KT P6SM FEW200 FEW250 FM181700 VRB03KT P6SM SKC FM182000 26008KT P6SM SKC FM190400 VRB03KT P6SM SKC
KBUR 
9nm N 
181124Z 1812/1912 VRB03KT P6SM SKC
KVNY 
12nm NW 
181405Z 1814/1912 35015KT P6SM SKC FM181800 35006KT P6SM SKC FM182300 16008KT P6SM SKC FM190400 VRB03KT P6SM SKC
KLGB 
17nm SE 
181124Z 1812/1912 VRB03KT P6SM SKC FM182300 29008KT P6SM SKC FM190300 VRB03KT P6SM SKC
NOTAMs
Click for the latest NOTAMs
NOTAMs are issued by the DoD/FAA and will open in a separate window not controlled by AirNav.

 

 
 

Would you like to see your business listed on this page?

 If your business provides an interesting product or service to pilots, flight crews, aircraft, or users of the Wilshire Area Heliport, you should consider listing it here.  To start the listing process, click on the button below
 
Add a business
 

Other Pages about Wilshire Area Heliport

Update a link
 
Copyright © AirNav, LLC. All rights reserved. Privacy Policy  Contact